Vertical_Velocity
1 2 2 0 -11 -7 -0 0 0 0 -1 2 2 -1 -3 1 1 -4 2 -1 -2 -1 0 1 0 -0 -1 3 -2 -2 -1 -0 -1 -1 -2 0 -2 -1 5 4 4 2 -2 -1 0 0 1 -2 -1
-1 2 2 -0 -8 -2 -3 -1 -0 1 -1 2 -0 0 -3 1 0 -1 -1 -1 0 -0 -1 -1 -1 -1 -1 -2 1 0 0 1 -1 -1 -1 -1 -1 -3 1 2 5 4 -1 1 0 1 1 -4 -2
1 2 -1 -4 -1 -2 -2 0 -0 2 3 1 -1 0 1 -0 0 -0 -2 -0 1 1 1 0 0 0 0 -1 -1 1 -0 -1 -1 0 -0 -1 -0 -2 -0 -1 2 3 4 -1 -0 2 -2 -1 -2
1 -0 -2 -8 0 0 -1 -1 -0 1 0 0 0 -3 1 -2 1 -1 -1 -0 -1 -0 1 1 1 0 -1 -2 1 -2 -2 -1 -2 -2 -1 -0 -1 -1 -3 -1 -0 3 4 -0 1 -1 0 0 -2
1 -0 -3 -2 1 0 -0 -1 1 0 0 1 -0 0 -0 0 -1 -1 1 0 0 1 -0 -0 0 1 2 2 -1 -2 1 -0 0 -0 -1 -1 -0 -1 -1 -2 -0 -0 2 7 3 1 3 -1 0
-0 -0 -4 -0 0 1 -0 -1 -1 0 1 0 -2 -1 0 1 -0 -1 -1 0 -0 -0 0 -1 0 1 -0 -1 -0 -0 0 0 -1 -0 -0 0 -1 -1 -1 0 -1 -3 2 0 5 5 -2 2 0
-5 -3 -1 -0 0 1 -2 1 -1 -1 0 0 0 -2 0 -0 0 0 -0 0 -0 -1 -1 0 -0 0 0 0 0 -0 0 -1 0 -1 -0 -1 -0 -0 -2 -2 -1 -1 -1 -1 -3 1 -1 1 3
-1 -6 -0 -0 -1 -3 1 1 0 -0 -1 1 -1 -3 -3 -5 -1 0 -0 -0 0 -0 -1 -1 0 1 1 1 1 -0 -1 -0 0 -1 -1 -0 -1 -1 -2 -0 -0 -2 -3 1 1 -3 2 -0 -1
-0 -8 -0 -1 -1 -3 3 -1 1 0 -1 0 -1 -1 1 -1 -2 -1 -1 -1 -1 0 -1 0 -0 -1 -0 -1 -0 -1 -0 -1 -1 -1 -1 -0 0 0 -2 -0 -2 -1 -1 3 -1 -1 2 2 2
-6 -4 -4 -1 -1 -2 -0 -1 -3 0 0 -0 -1 -1 -1 0 -1 -1 -1 0 -1 -1 0 1 0 -0 -0 0 -1 -2 -1 -2 -1 -1 -1 1 -2 -0 -1 1 -1 -2 -0 -1 -0 1 -1 0 2
1 -3 -1 -0 0 1 -0 1 0 -2 -0 -4 -9 -4 -1 -1 -1 -1 -1 -1 1 0 0 -0 -0 -0 -0 1 0 -0 0 1 -0 2 -0 -0 -1 -2 -1 -1 -0 -0 -1 -1 -0 -3 3 -1 3
-7 0 0 0 -0 1 -1 2 1 1 -2 -1 -0 2 -0 -2 -2 -2 -1 -1 1 -0 -1 -0 -0 -1 -1 1 1 -0 -0 1 -2 0 -1 -1 0 -1 0 -1 2 -1 -2 -1 -1 1 -5 1 2
-2 -0 0 0 1 1 1 0 -1 -4 -2 -2 -0 -1 -0 -0 1 1 2 -0 -1 -1 -0 -0 -0 1 1 -1 -0 0 -0 1 -1 -1 0 -1 0 -0 1 0 -2 0 -1 -1 -1 -0 0 1 -0
1 1 1 -0 -0 -1 -2 -0 0 -0 -1 -2 -1 -1 -1 -1 -1 0 -2 -1 -1 -1 -0 -0 -0 -0 1 0 1 0 -0 -0 0 -1 0 -0 -0 1 -2 1 -1 1 -0 -1 -0 -1 -1 0 2
-1 -4 -1 -0 -0 -0 0 1 -2 0 1 -0 -1 -0 -0 -1 -1 -3 2 0 1 0 1 1 1 0 0 -1 -0 -1 -0 -1 0 -2 -1 -0 1 0 -0 0 0 -0 1 -1 -1 0 -2 -1 -1
-2 -5 -1 -2 0 0 -6 -9 -2 2 -2 -1 0 -0 -1 -2 -3 0 -1 1 0 -1 1 0 1 1 0 0 0 -0 0 -1 0 -0 -1 0 -1 -1 -0 -1 -1 -1 -1 0 2 0 1 0 2
-3 -2 1 -2 -1 -1 -3 -4 -0 4 1 0 -0 -0 -1 1 -1 -1 -1 0 -1 1 0 1 0 -0 -1 -0 -0 0 -0 -0 -1 -1 -0 -1 0 -0 -0 -1 -0 -1 0 -0 -1 1 1 1 1
-3 0 1 -1 -4 1 1 -4 -2 -0 2 -2 -1 -1 -2 -2 -6 0 -1 0 1 0 0 -1 -0 0 -1 -1 -1 -0 -0 -1 -0 -0 -1 -1 -1 -1 -1 -1 1 0 -0 -0 -1 1 0 -1 1
-2 -1 -1 -1 -0 -2 -2 -1 -3 -2 2 1 -2 -1 -3 -4 3 2 1 1 2 -0 -1 -1 -0 -0 -0 -1 -1 -1 -0 -1 -1 -1 -1 -1 -1 -1 -1 -2 -2 -2 -1 0 -1 -2 -1 -4 -2
0 -1 0 -1 0 -1 -0 -6 -3 -1 -5 -6 -3 -2 -4 0 -2 0 -0 -1 -2 3 2 -1 0 -1 -0 -1 -1 -1 -2 -1 -1 -1 -1 -1 -1 -1 -0 -1 -1 -1 -1 -1 -0 1 -3 -4 -0
0 -2 -0 -2 0 -0 -0 -6 0 -3 3 2 -3 -0 2 -4 -3 -2 -3 -3 1 -2 -1 0 1 1 -0 -2 -0 -2 -1 -1 -2 -2 -1 -1 -1 -0 -0 0 -0 -1 -1 -0 -3 -2 0 -3 -3
0 -1 -1 -0 -3 -5 -4 -11 -2 -1 -2 1 -1 -3 -3 -3 -1 1 -1 -4 -3 1 1 0 1 0 0 -1 -0 -1 0 -1 -1 -1 -1 -0 -1 -0 0 0 1 -1 -1 0 2 1 -1 0 -1
-4 -1 -2 -1 -1 -3 -0 -6 -17 0 -1 -3 -5 -4 -5 -2 -1 -3 -5 1 3 -1 -0 2 1 0 -0 0 1 0 -1 -1 -1 -0 -0 0 0 -1 0 -0 0 0 -2 -2 -1 2 2 1 3
-1 -4 -4 -2 -2 -3 -4 -7 -9 -3 -8 -2 -2 -4 -3 -3 -1 1 6 4 0 2 1 0 -0 1 -0 0 0 -0 -1 -0 -0 0 -0 -0 -0 -0 -1 -1 -1 -1 -1 -2 -0 -2 0 0 -0
-5 -5 -5 -7 -6 -8 -0 -2 -14 -3 -3 -3 -2 -2 2 2 1 1 -3 -3 -1 -3 -1 -1 -0 -1 -0 -1 -1 -0 0 -1 -0 0 -0 -0 0 -0 0 -0 0 -1 1 -2 -2 -2 2 1 -2
-2 -6 -10 -8 -4 -4 -2 -7 -24 -4 -0 -2 -1 -1 -1 0 1 -1 0 1 2 -0 0 1 -0 -1 -1 0 0 1 -1 -1 -0 -1 0 1 0 -1 -0 -0 -1 -1 -1 -2 -1 -1 -0 -0 0
-6 -4 -6 -6 -1 -4 -6 -11 -9 -1 -2 -1 -1 -1 -0 -0 -2 -2 0 0 2 -0 -1 -2 -0 1 -0 1 0 -2 -1 -1 1 1 -0 1 -1 -1 0 -0 -1 0 -1 -0 -0 -1 -1 0 1
-6 -2 -10 -4 -4 -2 -4 -2 -9 -2 -4 -1 -1 -1 1 -0 -0 -1 -2 1 1 1 4 3 2 2 4 2 1 1 1 1 1 -0 1 1 0 -0 -0 -0 0 1 0 0 -1 -2 -0 -1 -1
-0 0 -3 -7 -4 -6 -3 -12 -6 -2 -0 -0 -2 -2 -4 -1 -1 1 1 1 2 3 3 3 1 0 -0 -1 -0 -0 0 1 2 1 1 0 1 0 0 0 -0 -1 -0 -1 -1 -2 -1 -0 -1
-0 -2 -3 -6 -7 -2 -4 -19 -1 -1 0 0 -1 -1 0 2 1 0 0 2 0 0 0 1 2 0 -0 1 1 2 2 1 -0 -1 -0 -1 1 1 1 1 1 1 1 -1 -1 0 -0 -1 -1
Height
1530 1531 1532 1534 1544 1548 1558 1554 1550 1552 1556 1557 1555 1556 1559 1565 1568 1574 1573 1573 1575 1576 1576 1575 1573 1572 1570 1568 1567 1566 1565 1565 1564 1564 1565 1565 1566 1565 1566 1566 1565 1565 1565 1565 1565 1563 1562 1560 1559
1530 1531 1533 1533 1549 1562 1563 1551 1555 1556 1556 1557 1556 1559 1561 1569 1569 1570 1572 1572 1575 1576 1576 1574 1573 1571 1570 1569 1568 1566 1565 1564 1563 1563 1563 1564 1565 1565 1566 1566 1566 1566 1566 1566 1565 1564 1563 1562 1561
1530 1531 1533 1537 1552 1562 1561 1554 1556 1556 1557 1557 1558 1561 1565 1568 1569 1570 1570 1573 1575 1576 1575 1574 1573 1571 1570 1569 1568 1567 1566 1564 1563 1562 1562 1562 1563 1564 1565 1566 1566 1567 1567 1567 1566 1565 1564 1564 1562
1530 1532 1535 1548 1554 1552 1552 1555 1554 1556 1557 1557 1558 1563 1567 1567 1569 1570 1571 1573 1575 1575 1575 1574 1572 1572 1571 1570 1568 1567 1566 1565 1564 1562 1561 1561 1561 1562 1563 1565 1566 1567 1567 1567 1567 1567 1566 1565 1564
1530 1530 1544 1556 1554 1553 1553 1553 1554 1555 1557 1559 1560 1565 1566 1567 1568 1570 1572 1573 1574 1575 1574 1573 1572 1571 1571 1570 1569 1568 1567 1565 1564 1563 1562 1560 1560 1561 1562 1564 1565 1567 1567 1567 1567 1568 1567 1567 1567
1530 1531 1550 1561 1558 1555 1555 1554 1554 1556 1558 1560 1561 1564 1566 1567 1568 1570 1572 1573 1574 1574 1574 1573 1572 1571 1570 1570 1569 1568 1567 1566 1565 1563 1561 1560 1560 1560 1561 1563 1564 1565 1566 1567 1567 1568 1569 1569 1568
1529 1537 1550 1558 1560 1557 1554 1554 1555 1556 1558 1560 1561 1564 1566 1566 1568 1570 1571 1572 1573 1573 1573 1572 1572 1572 1571 1569 1569 1568 1567 1567 1565 1564 1562 1560 1559 1559 1560 1561 1562 1564 1565 1566 1567 1568 1569 1570 1569
1529 1533 1545 1553 1558 1555 1551 1554 1555 1555 1558 1559 1560 1561 1562 1562 1566 1569 1570 1571 1572 1572 1572 1572 1572 1571 1571 1571 1569 1568 1567 1567 1566 1564 1562 1561 1559 1559 1559 1560 1562 1563 1564 1565 1566 1568 1568 1569 1569
1530 1545 1556 1550 1553 1548 1550 1552 1555 1555 1556 1558 1559 1559 1560 1560 1564 1567 1568 1570 1571 1571 1571 1571 1571 1571 1571 1571 1570 1570 1568 1567 1566 1565 1564 1562 1560 1559 1559 1560 1561 1562 1564 1565 1565 1566 1568 1568 1569
1531 1547 1546 1544 1544 1546 1547 1549 1552 1555 1556 1557 1557 1558 1558 1559 1562 1565 1567 1569 1570 1571 1571 1571 1572 1571 1571 1571 1571 1570 1570 1568 1567 1566 1565 1564 1562 1561 1560 1559 1560 1561 1562 1564 1565 1565 1566 1568 1568
1534 1543 1542 1544 1544 1544 1547 1549 1551 1552 1557 1553 1553 1555 1557 1558 1561 1564 1566 1568 1570 1571 1571 1572 1572 1572 1572 1572 1571 1571 1571 1569 1569 1567 1565 1565 1563 1562 1561 1560 1560 1560 1561 1562 1564 1565 1565 1567 1568
1538 1541 1542 1544 1544 1545 1547 1548 1550 1550 1550 1551 1553 1555 1555 1556 1559 1561 1564 1566 1569 1570 1571 1571 1572 1572 1572 1572 1572 1571 1571 1570 1569 1568 1566 1566 1565 1564 1562 1561 1560 1560 1561 1562 1563 1563 1565 1566 1566
1538 1541 1543 1544 1544 1545 1547 1548 1549 1548 1549 1550 1551 1552 1554 1556 1558 1561 1564 1565 1567 1569 1570 1571 1571 1571 1571 1571 1572 1571 1571 1570 1569 1568 1567 1566 1565 1564 1563 1562 1561 1560 1560 1561 1562 1563 1564 1565 1566
1539 1542 1544 1545 1545 1546 1548 1549 1549 1544 1546 1548 1549 1550 1552 1555 1557 1559 1560 1563 1565 1567 1568 1570 1570 1570 1571 1571 1571 1570 1571 1570 1569 1568 1567 1566 1566 1564 1564 1563 1562 1561 1560 1561 1562 1562 1563 1565 1565
1541 1546 1545 1546 1546 1547 1548 1550 1542 1541 1543 1545 1546 1548 1550 1552 1555 1556 1558 1560 1563 1565 1567 1568 1569 1570 1570 1570 1570 1570 1570 1570 1569 1568 1568 1567 1566 1565 1564 1563 1562 1562 1561 1561 1561 1562 1563 1564 1564
1545 1548 1555 1547 1546 1547 1549 1547 1534 1538 1540 1542 1544 1545 1547 1549 1551 1554 1556 1559 1561 1563 1566 1567 1568 1568 1569 1570 1570 1571 1570 1570 1569 1569 1568 1567 1566 1566 1565 1564 1563 1562 1561 1561 1560 1561 1562 1563 1564
1552 1563 1550 1547 1545 1546 1548 1542 1535 1535 1538 1539 1540 1542 1544 1546 1547 1550 1553 1556 1559 1562 1564 1565 1567 1567 1568 1569 1570 1570 1570 1570 1569 1569 1568 1567 1566 1566 1566 1565 1564 1563 1563 1562 1561 1561 1562 1563 1564
1550 1552 1546 1544 1543 1546 1548 1544 1537 1536 1537 1537 1538 1539 1539 1540 1541 1546 1549 1552 1556 1559 1561 1563 1564 1565 1567 1568 1569 1569 1569 1569 1569 1568 1568 1567 1567 1566 1566 1566 1565 1564 1564 1562 1562 1562 1562 1563 1564
1536 1538 1539 1541 1542 1543 1546 1543 1534 1535 1535 1534 1533 1533 1534 1534 1540 1543 1546 1549 1552 1554 1556 1559 1561 1563 1565 1566 1567 1568 1568 1569 1568 1568 1568 1567 1567 1567 1567 1566 1566 1565 1565 1564 1563 1563 1564 1564 1566
1532 1537 1540 1544 1543 1545 1543 1537 1531 1529 1525 1525 1526 1526 1527 1530 1533 1536 1539 1542 1545 1549 1553 1555 1558 1560 1562 1564 1565 1566 1567 1567 1567 1567 1567 1567 1567 1567 1567 1566 1566 1567 1566 1565 1565 1565 1565 1565 1568
1534 1539 1542 1539 1546 1546 1546 1537 1525 1517 1517 1519 1519 1519 1521 1521 1525 1528 1531 1534 1539 1542 1547 1551 1554 1557 1559 1561 1562 1564 1565 1565 1566 1566 1567 1567 1567 1567 1567 1566 1566 1566 1567 1566 1566 1567 1567 1566 1568
1543 1533 1538 1545 1552 1560 1548 1559 1525 1515 1512 1511 1508 1509 1509 1513 1517 1522 1524 1527 1531 1536 1543 1547 1551 1553 1555 1557 1559 1561 1563 1564 1565 1565 1566 1566 1567 1567 1567 1567 1566 1566 1566 1567 1567 1567 1567 1567 1567
1533 1534 1538 1542 1551 1556 1552 1571 1525 1515 1510 1505 1498 1498 1500 1504 1509 1512 1514 1521 1527 1532 1537 1542 1546 1549 1551 1554 1556 1558 1560 1561 1563 1564 1565 1565 1566 1566 1566 1566 1566 1566 1566 1567 1567 1567 1566 1567 1567
1534 1540 1548 1558 1566 1575 1546 1556 1530 1517 1503 1494 1490 1490 1491 1495 1501 1506 1512 1517 1521 1528 1532 1537 1541 1544 1547 1550 1553 1555 1557 1559 1560 1562 1563 1564 1565 1565 1565 1566 1566 1566 1565 1566 1567 1567 1567 1566 1567
1539 1544 1581 1576 1589 1550 1555 1562 1505 1498 1493 1487 1484 1484 1487 1490 1495 1499 1504 1508 1514 1520 1526 1531 1534 1538 1542 1545 1548 1551 1554 1556 1558 1560 1561 1562 1563 1564 1564 1565 1566 1566 1566 1566 1567 1568 1567 1567 1567
1542 1540 1550 1557 1577 1548 1558 1538 1505 1487 1485 1484 1484 1484 1484 1485 1488 1492 1497 1502 1508 1515 1520 1524 1528 1533 1537 1541 1544 1547 1550 1552 1554 1556 1558 1560 1561 1562 1563 1564 1565 1565 1566 1566 1567 1568 1568 1567 1567
1537 1544 1533 1557 1584 1564 1546 1523 1497 1483 1480 1480 1479 1481 1482 1482 1484 1488 1492 1498 1504 1510 1514 1519 1524 1529 1533 1537 1540 1543 1546 1548 1551 1553 1555 1557 1558 1560 1562 1562 1563 1564 1565 1565 1566 1566 1567 1567 1566
1530 1531 1536 1552 1549 1547 1548 1538 1503 1488 1479 1477 1477 1475 1480 1481 1482 1485 1490 1494 1500 1507 1512 1516 1521 1525 1529 1532 1536 1539 1542 1545 1547 1549 1551 1554 1556 1558 1559 1560 1561 1562 1563 1564 1564 1565 1566 1566 1566
1531 1532 1539 1533 1538 1535 1553 1513 1488 1479 1477 1476 1475 1475 1479 1481 1483 1486 1489 1494 1498 1503 1509 1514 1517 1521 1524 1528 1531 1534 1537 1540 1542 1545 1548 1551 1553 1554 1556 1558 1559 1560 1561 1562 1563 1564 1565 1565 1566
1525 1518 1516 1516 1538 1552 1543 1505 1478 1477 1476 1475 1474 1471 1475 1480 1483 1486 1489 1492 1496 1501 1506 1510 1514 1516 1520 1523 1526 1529 1533 1536 1538 1541 1544 1546 1549 1551 1553 1555 1556 1557 1558 1560 1561 1562 1563 1564 1565